Home   Weather   Fairfield   Past weeks
Flag for USA

Past Weather in Fairfield, Mississippi, USA — Yesterday and Last 2 Weeks

Now
50 °F

Sunny.


Feels Like: 48 °F
Forecast: 52 / 30 °F
Wind: 5 mph from South

Location: University-Oxford Airport

Current Time: Dec 12, 2019 at 4:24:44 pm

Latest Report: Dec 12, 2019 at 4:15 pm


Visibility: 10 mi

Pressure: 30.23 "Hg

Humidity: 54%

Dew Point: 34 °F

Location of FairfieldLocation

Past Weather in Fairfield — Graph

°F

Fairfield Temperature Yesterday

Maximum temperature yesterday: 48 °F (at 2:15 pm)
Minimum temperature yesterday: 23 °F (at 6:15 am)
Average temperature yesterday: 34 °F

High & Low Weather Summary for the Past Weeks

 TemperatureHumidityPressure
High68 °F (Nov 30, 1:15 pm)100% (Nov 30, 3:15 pm)30.61 "Hg (Nov 30, 3:15 pm)
Low23 °F (Dec 11, 6:15 am)31% (Dec 4, 1:55 pm)29.64 "Hg (Nov 30, 5:35 pm)
Average46 °F76%30.14 "Hg
* Reported Nov 27 3:15 pm — Dec 12 3:15 pm, Fairfield. Weather by CustomWeather, © 2019

Note: Actual official high and low records may vary slightly from our data, if they occured in-between our weather recording intervals... More about our weather records

Fairfield Weather History for the Previous 24 Hours

Scroll right to see more
 ConditionsComfort  
Time TempWeatherWind HumidityBarometerVisibility
3:15 pm
Thu, Dec 12
52 °FSunny.8 mph47%30.25 "Hg10 mi
2:35 pm52 °FSunny.7 mph47%30.26 "Hg10 mi
2:15 pm52 °FSunny.9 mph44%30.26 "Hg9 mi
1:55 pm52 °FSunny.6 mph41%30.27 "Hg10 mi
1:35 pm52 °FSunny.9 mph41%30.28 "Hg10 mi
1:15 pm52 °FSunny.12 mph38%30.29 "Hg10 mi
12:55 pm52 °FSunny.9 mph38%30.30 "Hg10 mi
12:35 pm52 °FSunny.7 mph38%30.31 "Hg10 mi
12:15 pm52 °FSunny.12 mph35%30.32 "Hg10 mi
11:55 am50 °FSunny.10 mph40%30.33 "Hg9 mi
11:35 am48 °FSunny.10 mph43%30.35 "Hg10 mi
11:15 am48 °FSunny.13 mph43%30.37 "Hg10 mi
10:55 am46 °FSunny.14 mph46%30.38 "Hg10 mi
10:35 am45 °FSunny.10 mph49%30.40 "Hg10 mi
10:15 am43 °FSunny.12 mph49%30.40 "Hg10 mi
9:55 am43 °FSunny.10 mph53%30.41 "Hg10 mi
9:35 am41 °FSunny.8 mph57%30.43 "Hg10 mi
9:15 am39 °FSunny.9 mph65%30.43 "Hg10 mi
8:55 am39 °FSunny.7 mph70%30.43 "Hg10 mi
8:35 am34 °FSunny.6 mph93%30.44 "Hg10 mi
8:15 am30 °FSunny.6 mph100%30.44 "Hg10 mi
7:55 am28 °FSunny.No wind93%30.45 "Hg10 mi
7:35 am27 °FSunny.No wind100%30.45 "Hg10 mi
7:15 am27 °FSunny.No wind93%30.45 "Hg10 mi
6:55 am27 °FSunny.3 mph93%30.45 "Hg10 mi
6:35 am27 °FClear.3 mph93%30.44 "Hg10 mi
6:15 am27 °FClear.No wind93%30.45 "Hg10 mi
5:55 am27 °FClear.No wind93%30.44 "Hg10 mi
5:35 am27 °FClear.No wind93%30.44 "Hg10 mi
5:15 am25 °FClear.No wind100%30.44 "Hg10 mi
4:55 am27 °FClear.No wind93%30.44 "Hg10 mi
4:35 am27 °FClear.No wind93%30.44 "Hg10 mi
4:15 am27 °FClear.No wind93%30.45 "Hg10 mi
3:55 am27 °FClear.No wind93%30.45 "Hg10 mi
3:35 am27 °FClear.No wind93%30.46 "Hg10 mi
3:15 am27 °FClear.No wind93%30.47 "Hg10 mi
2:55 am27 °FClear.No wind100%30.47 "Hg10 mi
2:35 am27 °FClear.No wind100%30.48 "Hg10 mi
2:15 am27 °FClear.No wind100%30.49 "Hg10 mi
1:55 am27 °FClear.No wind100%30.49 "Hg10 mi
1:35 am27 °FClear.No wind100%30.49 "Hg10 mi
1:15 am27 °FClear.No wind100%30.50 "Hg10 mi
12:55 am28 °FClear.No wind93%30.50 "Hg10 mi
12:35 am28 °FClear.No wind93%30.50 "Hg10 mi
12:15 am28 °FClear.No wind93%30.50 "Hg10 mi
11:55 pm
Wed, Dec 11
28 °FClear.No wind93%30.50 "Hg10 mi
11:35 pm28 °FClear.No wind93%30.51 "Hg10 mi
11:15 pm28 °FClear.No wind100%30.51 "Hg10 mi
10:55 pm28 °FClear.No wind100%30.52 "Hg10 mi
10:35 pm28 °FClear.No wind100%30.52 "Hg10 mi
10:15 pm30 °FClear.No wind93%30.52 "Hg10 mi
9:55 pm30 °FClear.No wind93%30.52 "Hg10 mi
9:35 pm30 °FClear.No wind93%30.52 "Hg10 mi
9:15 pm30 °FClear.No wind93%30.52 "Hg10 mi
8:35 pm30 °FClear.No wind100%30.52 "Hg10 mi
8:15 pm30 °FClear.No wind100%30.51 "Hg10 mi
7:55 pm32 °FClear.No wind93%30.52 "Hg10 mi
7:35 pm32 °FClear.No wind93%30.52 "Hg10 mi
7:15 pm32 °FClear.No wind93%30.51 "Hg10 mi
6:55 pm34 °FClear.No wind87%30.51 "Hg10 mi
6:35 pm34 °FClear.No wind93%30.52 "Hg10 mi
6:15 pm36 °FClear.No wind87%30.52 "Hg10 mi
5:55 pm36 °FClear.No wind87%30.52 "Hg10 mi
5:35 pm37 °FClear.No wind81%30.51 "Hg10 mi
5:15 pm39 °FClear.No wind75%30.51 "Hg10 mi
4:55 pm41 °FClear.No wind66%30.51 "Hg10 mi
4:35 pm45 °FSunny.No wind57%30.51 "Hg10 mi
4:15 pm46 °FSunny.No wind50%30.51 "Hg10 mi
Weather by CustomWeather, © 2019

See weather overview

Advertising